Meknes, Morocco

2:55 AM WET on May 22, 2018 (GMT +0000)
Meknes

Weather History for GMFM - November, 2011

Change the Weather History Date:

Wednesday, November 2, 2011

  Actual Average (GMFF) Record (GMFF)
Temperature  
Mean Temperature 64 °F -  
Max Temperature 73 °F 67 °F 87 °F (2016)
Min Temperature 55 °F 48 °F 41 °F (1998)
Degree Days  
Heating Degree Days 1    
Growing Degree Days 14 (Base 50)    
Moisture  
Dew Point 48 °F    
Average Humidity 49    
Maximum Humidity 77    
Minimum Humidity 25    
Precipitation  
Precipitation 0.00 in 0.10 in - ()
Sea Level Pressure  
Sea Level Pressure 29.97 in    
Wind  
Wind Speed 5 mph ()    
Max Wind Speed 8 mph    
Max Gust Speed -    
Visibility 6.0 miles    
Events      
Averages and records for this station are not official NWS values.
T = Trace of Precipitation, MM = Missing Value Source: Averaged Metar Reports

Daily Weather History Graph

Daily Weather History Graph

Search for Another Location

Airport or City:

Astronomy

Nov. 02, 2011 Rise Set
Actual Time 6:41 AM WET 5:28 PM WET
Civil Twilight 6:16 AM WET 5:54 PM WET
Nautical Twilight 5:46 AM WET 6:24 PM WET
Astronomical Twilight 5:17 AM WET 6:53 PM WET
Moon 12:53 PM WET (11/2) No Moon Set
Length of Visible Light 11h 38m
Length of Day
10h 47m
Waxing Crescent, 48% of the Moon is Illuminated
Nov 2
Waxing Crescent
Nov 2
First Quarter
Nov 10
Full
Nov 18
Last Quarter
Nov 25
New

Hourly Weather History & Observations

Time (WET) Temp. Dew Point Humidity Pressure Visibility Wind Dir Wind Speed Gust Speed Precip Events Conditions
12:00 AM 61 °F 52 °F 63% 30.01 in 6 mi SSE 5.8 mph - -  
12:00 AM 60.8 °F 51.8 °F 72% 30.04 in - SSE 5.8 mph - N/A   Clear
1:00 AM 60.8 °F 51.8 °F 72% 30.04 in - South 5.8 mph - N/A   Clear
2:00 AM 62.6 °F 46.4 °F 55% 30.04 in - South 5.8 mph - N/A   Clear
3:00 AM 64 °F 42 °F 33% 29.96 in 6 mi South 6.9 mph - -  
3:00 AM 64.4 °F 42.8 °F 45% 30.01 in - South 8.1 mph - N/A   Clear
4:00 AM 60.8 °F 46.4 °F 59% 30.01 in - SSE 6.9 mph - N/A   Clear
5:00 AM 62.6 °F 42.8 °F 48% 29.98 in - South 6.9 mph - N/A   Clear
6:00 AM 63 °F 42 °F 35% 29.94 in 6 mi South 8.1 mph - -   Scattered Clouds
6:00 AM 62.6 °F 42.8 °F 48% 29.98 in - South 8.1 mph - N/A   Clear
7:00 AM 64.4 °F 39.2 °F 40% 29.98 in - SSE 6.9 mph - N/A   Clear
8:00 AM 68.0 °F 39.2 °F 35% 29.98 in - South 8.1 mph - N/A   Clear
9:00 AM 70 °F 42 °F 25% 29.92 in 6 mi SW 2.3 mph - -   Mostly Cloudy
9:00 AM 69.8 °F 42.8 °F 38% 29.98 in - SW 2.3 mph - N/A   Clear
10:00 AM 73.4 °F 44.6 °F 36% 29.98 in - West 5.8 mph - N/A   Clear
11:00 AM 73.4 °F 48.2 °F 41% 29.98 in - WNW 3.5 mph - N/A   Clear
12:00 PM 72 °F 47 °F 29% 29.91 in 6 mi NNW 5.8 mph - -   Mostly Cloudy
12:00 PM 73.4 °F 46.4 °F 38% 29.98 in - NNW 5.8 mph - N/A   Clear
1:00 PM 73.4 °F 50.0 °F 44% 29.98 in - WNW 6.9 mph - N/A   Clear
2:00 PM 73.4 °F 53.6 °F 50% 29.98 in - West 8.1 mph - N/A   Clear
3:00 PM 73 °F 52 °F 37% 29.89 in 6 mi WNW 5.8 mph - -   Partly Cloudy
3:00 PM 73.4 °F 51.8 °F 47% 29.98 in - SW 5.8 mph - N/A   Clear
4:00 PM 73.4 °F 53.6 °F 50% 29.98 in - WNW 5.8 mph - N/A   Clear
5:00 PM 69.8 °F 53.6 °F 56% 29.98 in - WNW 4.6 mph - N/A   Clear
6:00 PM 68.0 °F 53.6 °F 60% 29.98 in - West 3.5 mph - N/A   Clear
7:00 PM 66.2 °F 50.0 °F 56% 29.98 in - West 3.5 mph - N/A   Clear
8:00 PM 62.6 °F 48.2 °F 59% 29.95 in - SE 3.5 mph - N/A   Clear
9:00 PM 63 °F 52 °F 57% 29.91 in 6 mi SSE 4.6 mph - -   Scattered Clouds
9:00 PM 62.6 °F 51.8 °F 68% 29.95 in - SSE 4.6 mph - N/A   Clear
10:00 PM 60.8 °F 53.6 °F 77% 29.92 in - SSE 2.3 mph - N/A   Clear
11:00 PM 62.6 °F 48.2 °F 59% 29.92 in - SSW 2.3 mph - N/A   Clear